Tracking 22879 objects as of 23-Apr-2021
HD Live streaming from Space Station
objects crossing your sky now

PW-SAT2


PW-SAT2 is no longer on orbit


NORAD ID: 43814
Int'l Code: 2018-099BJ
Perigee: N/A
Apogee: N/A
Inclination: N/A
Period: N/A
Semi major axis: N/A
RCS: N/A
Launch date: December 3, 2018
Source: POLAND (POL)
Launch site: AIR FORCE WESTERN TEST RANGE (AFWTR)
Decay date: 2021-02-23
aabbcc
Your satellite tracking list
Your tracking list is empty




NASA's NSSDC Master Catalog

Two Line Element Set (TLE):
1 43814U 18099BJ  21053.95883264  .25888781  26617-5  11832-1 0  9993
2 43814  97.7595 151.3588 0014519 299.9504  60.0343 16.21683976121934
Source of the keplerian elements: AFSPC